Temp
-6 -7 -8 -7 -7 -6 -6 -6 -6 -6 -5 -4 -4 -5 -6 -5 -5 -5 -5 -6 -6 -6 -5 -5 -5 -5 -5 -5 -4 -5 -5 -5 -5 -5 -5 -5 -5 -5 -5 -5 -5 -5 -5 -5 -4 -4 -5 -5 -5
-6 -7 -7 -7 -6 -6 -7 -6 -7 -6 -6 -5 -4 -5 -6 -6 -6 -6 -6 -6 -7 -6 -6 -5 -5 -5 -5 -5 -5 -5 -5 -5 -5 -5 -6 -6 -5 -5 -5 -5 -5 -5 -5 -5 -5 -5 -5 -5 -5
-6 -7 -7 -8 -7 -6 -7 -7 -7 -7 -6 -5 -4 -4 -6 -6 -6 -6 -6 -6 -7 -6 -6 -6 -5 -5 -5 -5 -5 -5 -5 -6 -6 -6 -6 -6 -6 -6 -6 -6 -6 -6 -5 -5 -5 -5 -5 -5 -5
-7 -7 -7 -7 -7 -6 -7 -7 -7 -7 -6 -5 -5 -5 -7 -7 -7 -7 -6 -7 -7 -7 -6 -6 -6 -6 -6 -6 -6 -6 -6 -6 -6 -6 -6 -6 -6 -6 -6 -6 -6 -6 -6 -6 -6 -6 -6 -6 -5
-7 -7 -8 -7 -7 -6 -7 -7 -8 -7 -7 -6 -6 -7 -7 -7 -7 -6 -6 -7 -7 -7 -7 -6 -6 -6 -6 -6 -6 -6 -6 -6 -6 -6 -6 -6 -6 -6 -6 -6 -6 -6 -6 -6 -6 -6 -6 -6 -6
-7 -7 -8 -8 -8 -7 -7 -7 -7 -8 -7 -6 -7 -7 -7 -7 -7 -7 -7 -7 -7 -7 -7 -6 -7 -7 -7 -7 -6 -6 -6 -6 -6 -7 -7 -7 -6 -6 -6 -6 -6 -6 -6 -6 -6 -6 -6 -6 -6
-7 -7 -8 -8 -8 -8 -7 -7 -7 -7 -8 -7 -7 -7 -7 -7 -7 -7 -7 -7 -7 -7 -7 -7 -7 -7 -7 -7 -7 -7 -7 -7 -7 -7 -7 -7 -6 -6 -6 -6 -6 -6 -6 -6 -6 -6 -6 -6 -6
-7 -7 -8 -8 -9 -9 -8 -8 -7 -7 -7 -7 -7 -7 -7 -7 -8 -8 -8 -8 -9 -8 -8 -8 -8 -8 -7 -8 -8 -8 -7 -7 -7 -7 -7 -7 -6 -6 -6 -6 -6 -6 -6 -6 -6 -6 -6 -6 -6
-7 -7 -8 -8 -9 -9 -9 -8 -8 -8 -8 -7 -7 -7 -7 -8 -8 -9 -9 -9 -8 -9 -9 -9 -9 -8 -8 -8 -8 -8 -8 -8 -7 -7 -7 -7 -7 -7 -7 -7 -7 -6 -6 -6 -6 -6 -6 -6 -6
-8 -8 -8 -9 -9 -10 -10 -10 -9 -8 -8 -8 -8 -7 -8 -8 -8 -8 -8 -9 -9 -9 -9 -9 -9 -9 -9 -8 -8 -8 -8 -8 -8 -8 -8 -8 -8 -7 -7 -7 -7 -7 -7 -7 -7 -7 -7 -7 -6
-8 -9 -9 -9 -9 -10 -11 -10 -11 -10 -9 -9 -8 -8 -8 -9 -8 -8 -9 -8 -8 -8 -8 -8 -9 -9 -9 -9 -9 -9 -8 -8 -8 -8 -8 -8 -8 -7 -7 -7 -7 -7 -7 -7 -7 -7 -7 -7 -7
-9 -10 -10 -10 -10 -10 -11 -11 -10 -11 -11 -10 -9 -9 -9 -9 -9 -9 -9 -9 -8 -9 -10 -9 -9 -9 -9 -9 -9 -9 -9 -8 -8 -8 -9 -8 -8 -8 -8 -7 -7 -7 -7 -7 -7 -7 -7 -7 -7
-10 -10 -11 -11 -11 -11 -11 -11 -11 -10 -11 -10 -10 -9 -9 -9 -9 -9 -9 -10 -10 -9 -9 -10 -10 -10 -10 -10 -10 -9 -9 -9 -9 -9 -9 -9 -8 -8 -8 -8 -8 -8 -8 -8 -7 -8 -8 -8 -8
-11 -11 -11 -11 -11 -11 -11 -11 -12 -11 -11 -12 -11 -10 -10 -9 -8 -10 -10 -11 -11 -10 -9 -10 -10 -10 -10 -10 -10 -9 -9 -9 -9 -9 -9 -9 -8 -8 -8 -8 -8 -8 -8 -8 -8 -8 -9 -9 -8
-12 -12 -12 -12 -12 -12 -12 -12 -12 -11 -12 -11 -11 -11 -11 -10 -11 -12 -11 -10 -10 -10 -10 -10 -10 -10 -11 -10 -9 -10 -10 -10 -9 -9 -9 -9 -9 -9 -9 -9 -9 -9 -9 -9 -9 -9 -9 -9 -9
-12 -12 -12 -12 -12 -13 -12 -12 -12 -12 -12 -11 -11 -12 -12 -11 -11 -12 -11 -11 -11 -10 -11 -10 -10 -10 -11 -11 -10 -10 -12 -11 -11 -10 -10 -10 -9 -9 -10 -9 -10 -9 -10 -9 -10 -9 -10 -10 -10
-12 -12 -12 -12 -13 -13 -12 -13 -13 -13 -12 -11 -13 -11 -12 -12 -11 -11 -10 -12 -12 -11 -10 -10 -11 -11 -11 -11 -11 -11 -11 -11 -11 -11 -10 -10 -9 -9 -10 -10 -10 -10 -10 -10 -9 -10 -10 -10 -11
-12 -12 -12 -13 -13 -13 -13 -13 -13 -13 -14 -12 -11 -12 -12 -13 -11 -11 -11 -12 -12 -11 -11 -12 -11 -11 -11 -13 -13 -12 -12 -11 -11 -11 -11 -10 -10 -10 -10 -10 -10 -10 -11 -11 -11 -11 -11 -11 -11
-12 -12 -12 -13 -13 -13 -13 -13 -13 -13 -13 -12 -12 -12 -13 -13 -12 -12 -12 -13 -13 -13 -12 -12 -12 -12 -13 -14 -13 -12 -11 -11 -11 -11 -11 -11 -11 -11 -11 -11 -11 -11 -11 -11 -11 -11 -11 -12 -12
-12 -12 -12 -13 -13 -13 -13 -13 -13 -13 -13 -13 -13 -13 -13 -14 -13 -11 -11 -12 -12 -13 -13 -13 -13 -13 -13 -12 -12 -12 -12 -12 -12 -12 -12 -12 -12 -12 -12 -12 -12 -13 -13 -13 -13 -12 -12 -12 -13
-12 -12 -12 -13 -13 -13 -13 -13 -13 -13 -13 -13 -14 -13 -13 -14 -13 -13 -13 -12 -13 -13 -13 -13 -13 -13 -14 -13 -13 -13 -13 -13 -13 -13 -13 -13 -13 -13 -13 -13 -13 -13 -13 -13 -12 -13 -13 -13 -13
-12 -12 -12 -13 -13 -14 -14 -14 -14 -14 -13 -13 -14 -14 -14 -14 -14 -13 -13 -13 -13 -13 -13 -13 -13 -13 -13 -13 -13 -14 -14 -14 -14 -13 -14 -14 -14 -14 -14 -14 -13 -13 -13 -13 -14 -14 -14 -14 -14
-13 -13 -13 -13 -13 -14 -14 -14 -14 -14 -14 -14 -13 -14 -14 -14 -14 -14 -14 -14 -14 -14 -13 -14 -14 -14 -14 -14 -14 -14 -14 -14 -14 -15 -14 -14 -14 -14 -14 -14 -13 -13 -14 -14 -14 -15 -15 -15 -15
-14 -14 -14 -14 -14 -14 -14 -14 -14 -14 -14 -14 -14 -14 -14 -14 -13 -13 -13 -13 -13 -13 -14 -14 -14 -14 -14 -14 -14 -14 -14 -14 -14 -14 -14 -14 -14 -14 -14 -14 -14 -14 -14 -15 -14 -14 -14 -14 -14
-14 -14 -14 -14 -14 -14 -14 -14 -14 -14 -14 -14 -13 -13 -13 -13 -13 -13 -13 -13 -14 -14 -14 -14 -14 -14 -14 -14 -14 -14 -14 -14 -14 -14 -14 -14 -15 -14 -14 -14 -14 -14 -15 -15 -15 -15 -15 -15 -15
-13 -14 -14 -14 -14 -14 -14 -14 -14 -14 -14 -14 -14 -13 -14 -13 -14 -14 -14 -14 -14 -14 -15 -14 -14 -14 -14 -14 -14 -14 -14 -14 -14 -14 -15 -14 -15 -15 -15 -15 -15 -15 -15 -15 -16 -16 -16 -17 -17
-13 -14 -14 -14 -14 -14 -14 -14 -14 -14 -14 -14 -14 -14 -15 -15 -15 -15 -15 -14 -15 -15 -14 -15 -15 -15 -15 -15 -15 -15 -14 -15 -15 -14 -15 -15 -15 -15 -15 -15 -15 -15 -16 -16 -17 -17 -17 -18 -18
-14 -14 -14 -14 -14 -14 -14 -14 -15 -15 -15 -16 -16 -16 -16 -15 -15 -15 -15 -14 -14 -14 -15 -15 -15 -15 -15 -14 -14 -14 -14 -15 -15 -15 -15 -15 -15 -15 -15 -15 -15 -16 -16 -17 -17 -18 -18 -18 -18
-14 -14 -14 -14 -15 -15 -15 -14 -15 -15 -15 -16 -16 -16 -16 -16 -16 -16 -15 -15 -15 -15 -15 -15 -15 -15 -15 -15 -15 -15 -15 -15 -15 -15 -15 -15 -15 -15 -15 -15 -16 -16 -17 -17 -18 -18 -18 -18 -18
-14 -14 -14 -15 -15 -15 -15 -15 -15 -15 -15 -15 -15 -15 -15 -15 -15 -15 -15 -15 -15 -16 -16 -16 -15 -15 -15 -15 -15 -15 -15 -15 -15 -15 -15 -15 -15 -16 -15 -16 -16 -17 -18 -18 -18 -19 -19 -19 -19
Height
5911 5911 5911 5912 5918 5922 5920 5919 5919 5921 5920 5919 5919 5919 5919 5921 5922 5925 5923 5922 5923 5923 5924 5925 5926 5927 5927 5928 5928 5928 5928 5929 5929 5930 5930 5930 5930 5930 5929 5928 5928 5927 5926 5926 5926 5925 5924 5924 5924
5909 5909 5909 5908 5915 5920 5920 5919 5922 5922 5920 5919 5919 5919 5920 5920 5921 5923 5921 5921 5921 5924 5923 5924 5925 5926 5926 5927 5927 5927 5927 5928 5928 5928 5928 5928 5928 5928 5928 5927 5927 5926 5926 5925 5925 5924 5923 5923 5922
5907 5907 5906 5905 5910 5917 5918 5919 5920 5920 5921 5918 5918 5918 5921 5920 5921 5921 5920 5918 5920 5922 5925 5925 5925 5925 5926 5926 5926 5925 5925 5926 5926 5926 5926 5926 5926 5926 5926 5926 5925 5924 5924 5924 5923 5922 5922 5922 5921
5904 5905 5903 5902 5906 5914 5916 5918 5919 5918 5920 5918 5917 5917 5918 5920 5920 5920 5920 5920 5920 5920 5922 5924 5923 5922 5923 5924 5925 5925 5925 5925 5925 5925 5925 5925 5925 5924 5924 5924 5924 5922 5921 5921 5921 5920 5920 5920 5920
5901 5902 5900 5898 5902 5909 5913 5915 5918 5917 5919 5918 5916 5917 5918 5919 5919 5920 5921 5921 5921 5920 5921 5923 5923 5921 5921 5922 5923 5923 5923 5923 5923 5923 5923 5923 5923 5923 5922 5922 5921 5920 5919 5918 5917 5917 5917 5917 5917
5897 5898 5898 5895 5896 5902 5909 5912 5914 5917 5919 5920 5919 5916 5917 5918 5920 5920 5922 5922 5921 5921 5923 5922 5923 5921 5920 5920 5921 5921 5921 5922 5921 5921 5921 5920 5919 5919 5918 5918 5917 5917 5916 5915 5914 5913 5913 5914 5914
5893 5894 5895 5892 5891 5894 5903 5908 5912 5913 5917 5919 5919 5918 5917 5917 5919 5920 5921 5921 5921 5920 5922 5920 5921 5919 5918 5918 5917 5917 5917 5918 5917 5917 5916 5916 5916 5915 5915 5914 5914 5913 5912 5911 5910 5909 5909 5909 5909
5889 5890 5891 5890 5888 5888 5890 5902 5907 5910 5912 5914 5915 5914 5917 5916 5917 5917 5918 5917 5917 5917 5919 5917 5917 5916 5916 5915 5914 5913 5913 5914 5913 5912 5912 5912 5911 5911 5910 5909 5909 5908 5907 5906 5906 5905 5904 5903 5902
5885 5887 5887 5886 5885 5884 5883 5892 5899 5904 5908 5911 5912 5910 5913 5913 5913 5913 5913 5914 5914 5914 5914 5913 5913 5912 5912 5911 5911 5910 5910 5909 5908 5908 5907 5907 5906 5906 5905 5904 5903 5903 5902 5901 5900 5899 5897 5896 5896
5879 5882 5884 5883 5881 5880 5879 5884 5891 5896 5901 5906 5908 5907 5908 5908 5908 5908 5906 5907 5908 5907 5906 5906 5907 5907 5906 5905 5905 5905 5905 5905 5904 5903 5903 5902 5901 5900 5899 5898 5897 5896 5895 5894 5893 5892 5891 5890 5890
5873 5877 5878 5878 5878 5877 5873 5877 5884 5889 5893 5897 5904 5905 5901 5901 5902 5902 5900 5902 5902 5901 5901 5900 5900 5900 5902 5902 5901 5900 5900 5899 5898 5897 5897 5896 5895 5894 5893 5893 5891 5890 5889 5888 5887 5886 5885 5884 5884
5866 5870 5871 5873 5873 5874 5873 5876 5880 5881 5886 5890 5895 5898 5896 5895 5895 5896 5896 5893 5894 5894 5894 5893 5893 5894 5896 5896 5896 5895 5893 5892 5891 5889 5888 5888 5888 5887 5886 5885 5883 5883 5883 5882 5880 5878 5877 5878 5877
5859 5862 5864 5866 5868 5870 5868 5870 5869 5873 5873 5876 5884 5890 5891 5890 5888 5888 5888 5887 5888 5888 5886 5887 5886 5888 5889 5887 5888 5887 5885 5884 5882 5881 5881 5881 5881 5880 5878 5877 5876 5875 5875 5874 5873 5870 5869 5868 5868
5853 5853 5856 5859 5862 5863 5863 5863 5862 5871 5868 5871 5870 5874 5882 5881 5881 5880 5879 5878 5880 5880 5879 5878 5878 5882 5883 5881 5880 5879 5878 5876 5875 5873 5873 5873 5872 5871 5870 5869 5868 5867 5866 5865 5864 5862 5860 5859 5858
5846 5848 5851 5853 5855 5855 5857 5858 5858 5867 5862 5866 5871 5872 5868 5866 5865 5868 5867 5870 5873 5875 5875 5872 5872 5873 5871 5871 5871 5870 5869 5868 5866 5866 5866 5863 5864 5863 5862 5861 5859 5858 5857 5855 5854 5852 5850 5848 5846
5842 5844 5846 5847 5848 5849 5853 5859 5853 5851 5852 5860 5865 5865 5862 5860 5859 5860 5862 5864 5866 5866 5869 5866 5867 5866 5864 5862 5860 5859 5858 5858 5856 5856 5857 5857 5856 5856 5854 5853 5850 5848 5846 5845 5844 5842 5840 5837 5835
5840 5842 5843 5843 5844 5847 5850 5851 5851 5849 5849 5857 5853 5854 5855 5853 5855 5855 5856 5857 5857 5858 5861 5861 5858 5857 5854 5852 5852 5852 5853 5851 5850 5848 5848 5847 5846 5845 5844 5842 5842 5839 5837 5835 5835 5833 5831 5827 5824
5838 5840 5841 5840 5842 5843 5843 5845 5849 5848 5847 5848 5850 5849 5848 5848 5850 5851 5852 5853 5853 5852 5850 5851 5850 5846 5844 5843 5846 5847 5846 5844 5842 5840 5839 5837 5836 5835 5834 5832 5831 5829 5827 5826 5825 5823 5820 5817 5813
5837 5838 5838 5837 5838 5839 5840 5841 5843 5841 5841 5842 5843 5844 5844 5843 5846 5848 5848 5847 5849 5848 5847 5843 5842 5841 5841 5840 5841 5841 5839 5836 5834 5831 5829 5827 5827 5825 5823 5821 5819 5817 5816 5814 5812 5810 5807 5804 5801
5834 5835 5835 5835 5835 5836 5836 5836 5837 5836 5837 5837 5838 5839 5838 5840 5840 5844 5846 5845 5845 5842 5841 5839 5840 5840 5839 5837 5835 5834 5832 5829 5825 5822 5820 5818 5815 5814 5812 5810 5808 5806 5803 5801 5800 5797 5793 5791 5787
5832 5832 5832 5833 5832 5832 5832 5832 5831 5831 5831 5832 5832 5833 5834 5836 5836 5836 5838 5839 5839 5838 5837 5836 5834 5832 5831 5828 5826 5822 5820 5818 5816 5812 5808 5805 5803 5800 5797 5795 5794 5791 5789 5787 5784 5781 5778 5774 5771
5829 5829 5829 5829 5829 5829 5828 5828 5827 5826 5827 5829 5827 5828 5830 5833 5834 5833 5833 5832 5831 5831 5830 5828 5826 5823 5820 5818 5815 5812 5810 5807 5804 5802 5798 5795 5793 5790 5787 5785 5782 5779 5776 5773 5768 5764 5761 5757 5754
5825 5825 5824 5825 5824 5824 5824 5823 5821 5822 5822 5821 5823 5824 5825 5826 5827 5826 5826 5826 5825 5823 5820 5817 5814 5812 5811 5808 5806 5803 5800 5796 5793 5790 5787 5785 5782 5779 5775 5770 5767 5764 5759 5757 5754 5749 5745 5741 5738
5820 5819 5819 5819 5819 5818 5817 5818 5816 5817 5816 5817 5817 5818 5819 5818 5818 5817 5816 5814 5813 5812 5810 5808 5806 5804 5801 5798 5796 5793 5790 5786 5783 5780 5777 5772 5767 5763 5759 5755 5751 5746 5741 5737 5734 5733 5729 5724 5719
5814 5813 5812 5812 5811 5809 5809 5809 5808 5809 5809 5809 5809 5810 5811 5809 5809 5807 5806 5804 5803 5801 5799 5797 5795 5792 5789 5787 5783 5780 5778 5775 5771 5767 5762 5758 5753 5747 5741 5737 5734 5729 5724 5719 5715 5711 5707 5703 5698
5809 5808 5807 5804 5804 5803 5801 5800 5801 5802 5802 5800 5799 5799 5799 5800 5799 5799 5797 5795 5793 5791 5788 5785 5783 5781 5777 5774 5770 5766 5763 5759 5753 5748 5743 5737 5732 5728 5723 5718 5714 5709 5705 5700 5695 5691 5687 5683 5678
5805 5804 5803 5800 5798 5796 5795 5795 5794 5795 5795 5795 5794 5793 5792 5792 5791 5790 5788 5785 5783 5780 5777 5773 5770 5766 5763 5759 5755 5751 5746 5739 5733 5727 5722 5718 5713 5708 5703 5696 5692 5688 5684 5679 5676 5672 5668 5665 5662
5801 5800 5799 5795 5793 5791 5790 5789 5789 5788 5788 5788 5788 5788 5787 5785 5783 5780 5778 5774 5770 5767 5764 5760 5756 5752 5747 5742 5737 5732 5726 5720 5714 5709 5703 5697 5690 5685 5680 5676 5670 5667 5663 5660 5657 5655 5652 5648 5645
5796 5794 5793 5791 5789 5786 5785 5785 5784 5783 5782 5781 5780 5779 5777 5775 5773 5770 5766 5763 5760 5756 5752 5746 5741 5735 5730 5724 5718 5712 5705 5699 5694 5688 5683 5677 5672 5666 5661 5656 5651 5646 5643 5641 5639 5637 5635 5632 5629
5789 5788 5787 5785 5785 5782 5780 5780 5778 5776 5774 5773 5771 5769 5767 5763 5761 5758 5756 5752 5748 5743 5738 5732 5726 5720 5713 5708 5701 5695 5688 5682 5676 5671 5666 5662 5657 5651 5644 5638 5632 5628 5626 5625 5623 5622 5620 5618 5613
Wind_Speed
14 14 16 20 17 9 12 13 5 6 7 1 2 7 15 15 14 14 13 12 9 9 10 10 11 11 11 11 12 11 9 7 5 3 2 0 1 2 3 3 4 4 4 5 5 5 5 5 6
15 16 17 22 18 13 10 15 6 7 9 3 3 11 17 19 18 15 17 14 11 9 11 13 13 13 12 12 13 12 9 8 7 5 3 2 2 3 4 5 5 5 5 6 6 5 5 6 7
18 19 21 24 22 15 14 11 13 11 12 6 6 5 21 20 17 17 18 17 15 12 11 12 13 12 12 12 12 12 10 9 8 7 6 6 5 5 7 8 8 7 7 8 8 8 8 8 8
21 21 24 26 24 17 17 14 9 11 15 14 8 15 27 21 18 16 18 16 14 14 13 13 13 12 11 10 10 9 9 9 8 8 8 8 8 8 8 9 9 9 9 10 11 11 11 11 11
24 24 26 30 27 22 21 19 18 12 13 15 15 15 20 25 24 25 20 16 13 11 12 12 11 9 9 8 9 9 8 9 8 9 9 9 11 11 11 12 13 13 13 14 14 15 15 15 14
23 27 28 31 31 27 24 24 24 18 14 13 13 22 22 24 24 19 16 13 12 11 12 13 12 10 10 9 10 9 9 10 10 11 11 11 12 13 14 15 16 17 18 17 18 19 19 19 18
21 23 27 33 35 35 28 29 27 23 25 24 14 22 23 22 20 17 18 16 14 13 14 11 11 10 10 11 12 12 13 15 16 16 17 17 18 20 20 21 21 21 21 21 21 21 21 21 21
23 24 25 30 35 36 36 29 32 28 25 27 28 27 26 25 23 23 20 19 18 16 16 12 14 14 14 14 14 15 16 19 20 21 22 22 23 24 24 24 25 26 26 24 24 23 23 24 25
25 25 26 29 33 38 40 35 31 34 26 27 30 25 25 30 27 24 23 21 20 19 19 17 15 15 16 17 17 17 20 22 24 25 24 25 26 26 26 27 27 28 28 27 26 26 26 25 26
29 27 26 28 33 36 38 37 34 32 36 35 27 32 22 24 32 34 32 26 25 23 22 18 18 19 19 21 22 23 24 25 28 29 27 27 28 29 29 29 30 31 31 30 28 28 29 29 29
33 30 29 30 31 33 39 29 25 27 30 34 29 35 28 29 35 39 26 25 25 28 27 30 24 25 23 23 23 24 26 29 32 32 31 28 30 32 33 34 33 34 34 33 33 33 33 32 31
36 34 33 32 33 30 35 38 29 29 27 28 34 32 36 31 32 35 37 32 31 26 24 30 29 27 30 28 27 32 32 33 37 33 36 32 33 35 35 37 37 38 38 37 38 38 37 35 34
36 35 35 35 35 32 34 35 44 39 37 38 37 34 42 42 37 40 37 33 33 36 40 36 29 29 31 32 34 34 34 34 34 30 30 32 37 44 39 38 37 37 38 38 37 34 33 34 37
31 33 30 33 35 35 36 37 40 31 44 40 33 36 43 48 45 39 37 32 32 31 32 27 28 28 26 33 35 35 37 37 39 36 35 35 35 40 40 37 35 34 34 36 36 38 40 40 41
21 24 24 24 29 34 35 35 35 28 31 25 43 21 31 48 43 38 45 42 44 35 39 36 34 31 31 30 36 36 36 36 36 38 40 41 36 39 40 40 37 36 36 36 38 41 43 44 45
13 15 19 24 26 30 30 27 26 27 28 23 19 36 30 32 34 34 33 28 26 30 33 36 36 37 30 31 38 36 30 32 36 35 35 39 38 38 42 46 45 50 50 48 43 44 43 43 45
10 13 16 21 22 24 25 23 23 25 26 19 18 27 26 37 33 29 33 17 17 25 35 34 31 37 34 36 36 30 32 35 36 36 39 40 42 42 42 43 44 44 44 45 49 43 40 45 49
11 12 16 19 19 21 25 22 25 23 19 23 27 21 22 22 30 41 31 21 23 27 26 28 32 29 30 24 30 33 35 35 40 41 40 41 42 44 44 43 44 43 41 42 44 44 47 52 52
14 13 14 14 17 21 22 24 21 32 32 26 29 28 22 19 20 14 19 22 24 25 26 25 30 30 27 25 31 33 38 39 39 41 41 42 43 43 45 45 46 48 49 50 49 50 55 54 59
11 13 11 13 18 20 21 24 30 30 27 21 27 28 19 20 21 22 23 21 28 22 27 31 31 30 32 32 35 37 40 38 40 42 44 43 45 46 46 46 45 47 50 51 52 53 51 52 52
15 13 13 14 17 18 21 26 31 29 20 25 27 32 24 25 24 24 24 26 27 31 33 33 35 37 38 37 39 39 39 41 43 46 50 51 51 50 50 52 53 59 61 63 63 61 60 57 60
19 19 19 18 18 20 21 26 27 29 30 27 23 19 21 22 24 27 32 35 36 37 38 41 46 44 44 44 42 43 44 46 49 51 54 55 55 55 56 58 63 64 66 68 65 65 64 63 64
16 18 21 22 24 24 26 29 30 28 28 28 28 28 26 28 32 35 40 43 43 44 46 48 46 45 45 45 46 49 51 52 54 57 59 62 60 63 65 69 72 76 72 68 67 63 62 63 66
16 19 22 25 27 30 32 33 37 35 36 35 33 33 34 34 38 39 37 38 40 43 45 47 47 48 50 51 53 55 56 56 58 60 64 65 67 70 72 76 76 72 68 67 68 67 67 70 70
18 21 25 26 28 32 33 35 37 36 38 41 42 43 40 39 39 40 41 41 42 44 47 48 50 52 55 57 58 58 59 61 62 72 70 70 74 75 76 76 72 71 72 73 73 73 73 73 73
18 19 20 23 25 26 27 32 32 30 31 33 33 35 37 37 36 36 37 40 44 48 48 47 49 52 55 57 60 63 67 70 77 77 77 77 72 72 74 75 74 73 72 73 73 73 71 69 67
17 19 19 21 21 22 22 21 21 22 23 23 26 28 30 32 34 37 38 43 45 49 53 54 58 60 62 63 65 72 77 79 80 78 75 75 74 73 73 73 74 74 73 72 67 64 64 60 61
17 18 18 19 23 23 23 21 21 21 21 22 25 28 30 33 37 42 45 51 51 56 59 63 65 67 70 72 73 73 72 72 73 73 72 72 72 71 70 69 70 70 70 67 63 61 56 60 60
18 17 18 21 21 23 25 23 23 23 23 25 28 31 35 39 43 47 51 54 56 58 60 61 63 65 66 68 69 69 68 68 68 67 63 62 62 62 62 64 65 65 62 60 58 56 53 53 51
19 18 18 20 21 22 24 25 25 25 27 29 32 35 39 42 46 48 50 52 54 56 59 62 62 61 61 61 62 62 60 58 57 55 53 53 56 58 57 58 58 58 55 53 49 44 43 47 46
Wind_Direction
240 240 231 242 238 242 257 269 260 219 250 158 202 201 166 169 181 176 166 155 151 165 168 168 161 159 149 152 158 156 157 153 150 145 134 130 328 324 321 323 324 328 330 328 326 323 324 323 319
242 248 239 242 245 225 248 273 251 225 242 176 52 201 181 163 164 177 169 167 157 179 179 178 177 173 166 170 173 171 171 174 178 185 202 227 262 285 287 291 298 303 311 314 314 315 314 310 304
245 247 251 246 249 230 214 254 270 264 235 227 197 208 186 174 175 184 186 172 176 180 203 195 190 188 190 196 197 190 190 196 204 212 218 234 243 260 272 278 280 289 294 295 299 299 299 300 296
246 248 253 251 250 244 220 214 256 225 245 238 169 161 181 182 197 205 205 185 181 182 197 206 194 189 201 212 217 217 220 227 231 235 240 246 253 257 272 282 285 289 291 291 293 294 293 292 290
248 251 256 259 256 246 222 211 226 236 232 225 169 167 177 194 201 209 211 193 190 194 201 213 209 202 205 217 227 227 234 241 244 258 267 274 278 280 279 281 284 285 285 286 287 287 286 286 286
251 251 253 262 264 255 233 218 214 244 218 200 201 177 187 198 205 201 205 198 198 197 220 218 218 214 216 226 236 246 259 265 270 269 276 280 283 285 287 285 285 284 284 283 282 283 284 286 286
255 252 253 259 264 264 251 235 222 221 231 239 245 232 209 206 211 209 211 211 215 221 231 231 240 244 243 248 254 258 261 267 270 274 278 281 283 286 287 288 285 282 280 281 282 283 286 286 283
261 262 257 255 260 265 264 248 235 234 242 242 235 239 232 219 216 213 209 213 213 224 233 238 244 250 254 260 266 267 269 271 272 274 275 277 277 278 280 280 282 281 279 278 279 281 283 284 284
260 259 260 262 257 259 262 259 247 238 236 244 246 229 227 237 216 220 214 221 222 225 236 244 255 267 269 272 274 275 269 267 266 264 266 270 273 276 277 279 279 278 277 276 275 275 275 275 277
262 259 258 258 261 259 264 265 259 249 239 242 255 239 218 226 230 226 226 225 234 235 240 241 247 254 263 270 272 273 272 267 267 269 269 274 277 278 277 277 278 278 274 272 271 272 274 276 279
262 259 257 255 256 258 257 257 248 260 255 239 236 249 229 224 224 235 224 236 246 248 249 242 250 258 260 262 267 272 271 269 264 261 267 271 277 279 278 279 279 277 276 274 272 273 274 274 275
258 256 254 254 254 257 252 248 269 234 245 255 242 245 225 223 217 218 224 231 236 238 246 261 259 259 259 264 272 276 275 270 269 267 255 261 272 276 278 277 277 278 278 277 275 274 273 272 272
258 257 252 250 251 252 259 261 250 255 240 238 240 239 253 246 216 216 224 226 235 238 243 244 252 268 269 264 264 271 272 272 271 274 275 273 268 270 275 277 272 270 270 271 272 272 272 270 272
256 256 256 251 250 252 254 256 257 268 266 270 219 228 246 235 244 221 227 231 237 245 254 262 264 267 269 263 261 266 264 261 263 264 265 267 269 268 270 270 270 272 273 276 276 276 275 277 277
267 256 253 252 248 250 253 257 268 271 274 272 273 249 234 233 215 217 227 230 236 252 265 261 258 259 268 262 264 267 259 259 261 263 267 262 272 271 270 267 268 270 274 279 279 281 279 279 277
269 245 248 246 243 248 251 258 260 262 267 279 268 241 262 225 229 242 248 249 250 254 258 258 258 259 263 268 263 264 277 275 275 273 275 280 273 276 277 274 276 272 274 279 284 282 279 279 278
251 244 245 248 250 253 250 244 251 257 263 264 285 243 246 268 263 233 235 249 257 250 257 256 267 260 255 264 267 275 276 283 283 284 281 280 282 282 282 283 283 282 280 277 277 274 277 274 275
240 245 263 263 254 246 243 238 242 242 265 263 257 253 234 244 264 253 239 221 235 244 252 256 257 263 266 284 287 284 278 278 279 278 276 279 281 282 283 283 282 282 281 278 276 276 272 274 275
264 269 271 252 242 241 245 245 256 243 236 247 258 251 231 227 241 243 248 237 249 251 263 284 289 283 283 283 274 277 276 275 273 278 278 279 280 279 280 283 285 286 284 282 282 279 277 278 277
275 270 268 249 244 241 243 247 257 266 260 240 249 251 253 261 263 260 262 258 256 255 278 283 277 279 279 278 276 274 275 282 286 283 283 285 285 288 289 289 289 290 292 290 289 287 279 274 274
269 268 265 259 252 248 253 256 258 271 271 248 232 238 232 244 266 277 273 282 277 279 285 290 290 285 283 283 285 288 289 291 293 293 293 294 292 291 291 293 294 296 294 293 290 287 282 278 275
271 270 270 265 265 258 257 255 255 266 268 260 248 248 257 257 265 273 281 284 285 282 283 285 287 285 282 282 285 286 287 288 289 289 291 292 288 287 285 290 293 294 292 292 288 287 282 280 277
274 276 272 267 259 250 243 244 250 255 265 266 257 260 260 260 263 269 272 272 273 274 277 279 275 274 276 280 281 282 283 283 285 287 290 290 286 286 286 289 292 292 291 287 285 282 281 280 275
273 270 268 267 263 259 257 254 254 254 257 262 265 265 267 267 267 272 274 273 272 273 274 274 272 272 273 276 276 277 278 281 283 287 290 289 286 286 288 291 291 288 287 285 282 278 277 275 276
269 268 265 265 262 265 267 266 267 267 265 267 267 265 268 276 278 277 279 282 278 274 273 271 271 272 273 273 276 277 280 280 281 286 286 285 285 286 285 284 284 285 285 285 284 284 284 283 283
286 282 276 277 269 271 272 268 269 272 270 272 272 270 272 274 279 285 286 284 284 282 278 275 278 278 277 279 280 279 283 280 284 285 286 288 287 286 284 284 284 283 283 283 282 282 283 284 283
286 281 282 282 281 282 281 283 280 278 276 276 276 279 282 286 285 286 286 282 278 279 278 277 279 282 283 284 282 285 286 285 285 287 287 287 286 285 285 285 284 284 283 282 281 282 283 281 281
281 281 281 279 280 283 285 288 291 291 286 282 279 279 278 274 272 273 274 274 276 279 283 286 286 285 285 284 284 284 285 285 286 287 287 287 288 288 288 286 285 283 281 280 280 280 277 281 282
286 281 277 277 280 280 282 283 283 283 281 278 273 271 270 271 272 273 274 277 280 283 287 288 288 287 288 289 290 289 288 289 290 290 290 290 290 290 291 290 288 285 283 282 282 282 281 282 280
291 285 278 275 276 275 281 285 287 283 280 278 278 278 278 278 280 284 288 290 292 292 290 289 290 291 291 291 292 294 293 292 292 292 292 291 292 293 293 291 288 285 283 282 283 285 281 282 281